www.pogodaiklimat.ru

Погода и климат >> Архив погоды >> Малайзия >> Авиабаза Баттерворт


ПОГОДА на Авиабазе Баттерворт

  • Прогноз погоды на Авиабазе Баттерворт
  • Монитор погоды на Авиабазе Баттерворт

АРХИВ ПОГОДЫ на Авиабазе Баттерворт

Время (UTC), дата Ветер
(напр.,м/с)
 
Видим.   Явления Облачность Т
(С)
Тd
(С)
f
(%)
Тe
(С)
Тes
(С)
Комфортность P
(гПа)
Po
(гПа)
Тmin
(С)
Tmax
(С)
R
(мм)
R24
(мм)
S
(см)
12 18.08 СЗ 1 6000 м гроза, ливневой дождь 9/3 500 м
[Cb cap Ac trans Cs]
+26.0 +23.5 86 +35 +35 очень
душно
1010.3 1010.0 +32.6 27
18 18.08 штиль 0 7000 м мгла 9/4 720 м
[Sc Ac trans Ci sp]
+25.4 +24.4 94 +35 +35 очень
душно
1011.7 1011.4 0.0
00 19.08 штиль 0 6000 м мгла 9/1 600 м
[Cu hum Ac trans Ci sp]
+24.4 +23.6 95 +33 +34 очень
душно
1011.3 1011.0 +24.0 27
06 19.08 ЮЗ 5 8000 м мгла 9/1 600 м
[Cu hum Ac trans Ci sp]
+31.7 +24.7 67 +45 +50 опасность
перегрева
1009.7 1009.4
12 19.08 Ю 4 8000 м мгла 9/1 700 м
[Sc Ac trans Ci sp]
+29.5 +25.3 78 +43 +43 опасность
перегрева
1008.9 1008.6 +32.1
18 19.08 В 1 7000 м мгла 9/3 720 м
[Sc Ac trans Ci sp]
+27.0 +25.2 90 +39 +39 очень
душно
1010.3 1010.0
00 20.08 В 2 5000 м мгла 9/3 600 м
[Cu Sc Ac trans Ci sp]
+25.3 +24.3 94 +35 +35 очень
душно
1009.8 1009.5 +24.4
06 20.08 ЮЗ 4 6000 м мгла 9/1 600 м
[Cu hum Ac trans Ci sp]
+32.8 +23.9 60 +45 +52 опасность
перегрева
1008.2 1007.9
12 20.08 штиль 0 7000 м мгла 9/1 720 м
[Sc Ac trans Ci sp]
+30.1 +24.7 73 +43 +43 опасность
перегрева
1007.4 1007.1 +33.4
18 20.08 С 2 7000 м гроза без осадков 9/4 500 м
[Cb cap Ac trans Ci sp]
+27.1 +25.8 93 +40 +40 очень
душно
1009.0 1008.7
00 21.08 С 2 6000 м слаб. ливневой дождь, в посл. час гроза 9/4 500 м
[Cb cap Ac trans Ci sp]
+24.4 +23.9 97 +33 +34 очень
душно
1010.2 1009.9 +23.8 27
06 21.08 Ю 4 8000 м мгла {дождь} 9/3 600 м
[Cu Sc Ac trans Cs]
+28.1 +24.3 80 +39 +46 очень
душно
1010.5 1010.2 0.2
12 21.08 Ю 2 9000 м мгла 9/1 720 м
[Sc diur, vesp Ac trans Ci sp]
+28.2 +23.3 75 +38 +38 очень
душно
1009.6 1009.3 +30.0
18 21.08 штиль 0 8000 м мгла 9/3 720 м
[Sc Ac trans Ci sp]
+25.4 +24.2 93 +35 +35 очень
душно
1010.9 1010.6
00 22.08 СЗ 3 6000 м слаб. дождь 9/5 150 м
[Cb cap Ac trans Ci sp]
+25.6 +24.2 92 +35 +36 очень
душно
1012.1 1011.8 +23.9 2
06 22.08 З 3 10 км мгла {дождь} 9/3 600 м
[Cu med, cong Ac trans Ci sp]
+31.2 +25.2 70 +45 +52 опасность
перегрева
1010.1 1009.8 0.0
12 22.08 СЗ 2 9000 м мгла 9/4 600 м
[Cu Sc Ac trans Ci sp]
+29.5 +24.4 74 +41 +41 опасность
перегрева
1009.2 1008.9 +31.9
18 22.08 штиль 0 6000 м мгла 9/4 720 м
[Sc Ac trans Ci sp]
+25.7 +24.7 94 +36 +36 очень
душно
1010.7 1010.4
00 23.08 В 1 10 км мгла 9/1 600 м
[Cu hum Ac trans Ci sp]
+24.9 +23.8 94 +34 +35 очень
душно
1011.5 1011.2 +24.4
06 23.08 З 4 9000 м мгла 9/3 600 м
[Cu med, cong Ac trans Ci sp]
+32.8 +22.8 56 +43 +49 опасность
перегрева
1009.8 1009.5
12 23.08 Ю 3 7000 м мгла 9/3 720 м
[Sc diur, vesp Ac trans Ci sp]
+29.9 +25.0 75 +43 +43 опасность
перегрева
1009.1 1008.8 +33.1
18 23.08 С 6 7000 м зарница 9/3 500 м
[Cb cap Ac trans Ci sp]
+26.6 +22.1 76 +34 +34 очень
душно
1011.7 1011.4
00 24.08 С 2 8000 м мгла 9/1 720 м
[Sc Ac trans Ci sp]
+24.9 +23.6 92 +34 +34 очень
душно
1010.9 1010.6 +24.2 0.6
06 24.08 З 4 7000 м мгла 9/3 500 м
[Cb cap Ac trans Ci sp]
+30.5 +25.3 74 +44 +51 опасность
перегрева
1009.8 1009.5
12 24.08 В 2 7000 м слаб. дождь {гроза} 9/3 700 м
[Sc Ac trans Cs]
+24.9 +24.4 97 +35 +35 очень
душно
1010.2 1009.9 +31.1 5
18 24.08 СВ 2 6000 м в посл. час дождь 9/4 300 м
[Sc Ac trans Ci sp]
+24.2 +23.7 97 +33 +33 очень
душно
1011.2 1010.9 11
00 25.08 В 3 5000 м дымка 9/4 210 м
[Sc Ac trans Ci sp]
+24.7 +24.3 98 +34 +35 очень
душно
1012.0 1011.7 +24.2 16
06 25.08 З 4 9000 м слаб. дождь 9/3 500 м
[Cb cap Ac trans Ci sp]
+29.0 +25.3 80 +42 +48 опасность
перегрева
1010.8 1010.5 0.0

 

Местоположение метеостанции Авиабаза Баттерворт (Малайзия): широта 5.47 долгота 100.38 высота над уровнем моря 2 м.

В архиве по умолчанию представлена погода на Авиабазе Баттерворт за последнюю неделю. Архивные данные за месяц целиком и за предыдущие месяцы, начиная с января 2011 года, Вы можете получить, выбрав интересующий диапазон дат из раскрывающегося списка и нажав кнопку "Ввод!".


*Определитесь, кто Вы:
робот инопланетянин человек

Внимание! Время в таблицах - всемирное. Для получения местного времени необходимо прибавить поправку, которая равна 7 ч.

Смотрите также архив погоды в соседних городах и на ближайших метеорологических станциях:

Погода в Пенанге (Малайзия) (23 км)
Погода в Алор Стар (Малайзия) (81 км)
Погода в Лангкави (Малайзия) (120 км)
Погода в Ипохе (Малайзия) (128 км)
Погода в Сатуне (Таиланд) (135 км)
Погода в Хо Хонг Агромете (Таиланд) (135 км)
Погода в Ситаване (Малайзия) (143 км)
Погода в Садао (Таиланд) (148 км)
Погода в Яла Агромете (Таиланд) (153 км)
Погода на Нагорье Кэмерон (Малайзия) (156 км)

Пояснения к столбцам:

Ветер - указаны скорость ветра в м/с - средняя за 10 мин, порывы в срок и между сроками (в фигурных скобках) и направление, откуда дует ветер: С - северный, СВ - северо-восточный, В - восточный, ЮВ - юго-восточный, Ю - южный, ЮЗ - юго-западный, З - западный, СЗ - северо-западный.
Видимость - горизонтальная дальность видимости в метрах или километрах. При видимости от 1 до 10 км при отсутствии осадков обычно наблюдается дымка, при ухудшении видимости до 1 км и менее - туман. В сухую погоду видимость может ухудшаться дымом, пылью или мглою.
Явления - указаны атмосферные явления, наблюдавшиеся в срок или в последний час перед сроком; фигурными скобками обозначены явления, наблюдавшиеся между сроками (за 1-3 часа до срока); квадратными скобками обозначены град или гололедные отложения с указанием их диаметра в мм.
Облачность - указаны через наклонную черту общая и нижняя облачность в баллах и высота нижней границы облаков в метрах; квадратными скобками обозначены формы облаков: Ci - перистые, Cs - перисто-слоистые, Cc - перисто-кучевые, Ac - высококучевые, As - высокослоистые, Sc - слоисто-кучевые, Ns - слоисто-дождевые, Cu - кучевые, Cb - кучево-дождевые. Подробнее классификацию облаков см. в Атласе облаков (PDF).
T - Температура воздуха - температура, измеренная на высоте 2 м над землей.
Td - Температура точки росы - температура, при понижении до которой содержащийся в воздухе водяной пар достигнет насыщения.
f - Относительная влажность воздуха - влажноcть воздуха, измеренная на высоте 2 м над землей.
Te - Эффективная температура - температура, которую ощущает одетый по сезону человек в тени. Характеристика душности погоды. При расчете учитывается влияние влажности воздуха и скорости ветра на теплоощущения человека.
Tes - Эффективная температура на солнце - температура, которую ощущает человек, с поправкой на солнечный нагрев. Характеристика знойности погоды. Зависит от высоты солнца над горизонтом, облачности и скорости ветра. Ночью, в пасмурную погоду, а также при ветре 12 м/с и более поправка равна нулю.
P - Атмосферное давление - приведенное к уровню моря атмосферное давление.
Po - Атмосферное давление - измеренное на уровне метеостанции атмосферное давление.
Tmin - Минимальная температура - минимум температуры воздуха на высоте 2 м над землей.
Tmax - Максимальная температура - максимум температуры воздуха на высоте 2 м над землей.
R - Количество осадков - Количество выпавших осадков за период времени, мм. При наведении курсора мыши на число - период времени, за который выпало указанное количество осадков.
R24 - Количество осадков - Количество выпавших осадков за 24 часа, мм.
S - Снежный покров - Высота снежного покрова, см. При наведении курсора мыши на число - состояние снежного покрова и степень покрытия местности в баллах.